Location: Newark
(0.5300°S, 127.4800°E)
Time: 08:13:31
(UTC+00:00)

deb Explorer IX - All Passes

Search period start: 19 September 2019 00:00
Search period end: 29 September 2019 00:00
Orbit: 544 x 1107 km, 38.8° (Epoch: 18 September)

Date Brightness Start Highest point End Pass type
(mag) Time Alt. Az. Time Alt. Az. Time Alt. Az.
19 Sep - 01:26:04 10° NW 01:30:28 74° NE 01:35:36 10° SE daylight
19 Sep - 03:14:56 10° WSW 03:17:46 15° SW 03:20:49 10° S daylight
19 Sep - 12:20:58 10° SSW 12:27:40 40° SE 12:33:45 10° ENE visible
19 Sep - 14:08:38 10° WSW 14:15:00 40° NW 14:20:37 10° NNE night (unlit)
20 Sep - 01:04:18 10° NW 01:08:37 77° NE 01:13:34 10° SE daylight
20 Sep - 02:53:26 10° WSW 02:55:53 14° SW 02:58:29 10° S daylight
20 Sep - 11:58:49 10° SSW 12:05:37 42° SE 12:11:52 10° ENE visible
20 Sep - 13:46:31 10° WSW 13:52:59 39° NW 13:58:44 10° NNE night (unlit)
21 Sep - 00:42:31 10° NW 00:46:46 80° NE 00:51:34 10° SE daylight
21 Sep - 02:32:00 10° WSW 02:34:00 12° SW 02:36:07 10° S daylight
21 Sep - 11:36:39 10° SSW 11:43:34 43° SE 11:49:59 10° ENE visible
21 Sep - 13:24:25 10° WSW 13:30:57 39° NW 13:36:49 10° NNE visible
22 Sep - 00:20:45 10° NW 00:24:55 84° NE 00:29:35 10° SE daylight
22 Sep - 02:10:40 10° SW 02:12:08 11° SW 02:13:40 10° SSW daylight
22 Sep - 11:14:32 10° SSW 11:21:29 45° SE 11:28:04 10° ENE visible
22 Sep - 13:02:19 10° WSW 13:08:55 38° NW 13:14:54 10° NNE visible
22 Sep - 23:58:59 10° NW 00:03:06 88° NE 00:07:37 10° SE daylight
23 Sep - 01:49:44 10° SW 01:50:17 10° SW 01:50:50 10° SSW daylight
23 Sep - 10:52:25 10° SSW 10:59:26 46° SE 11:06:08 10° ENE visible
23 Sep - 12:40:14 10° WSW 12:46:51 38° NW 12:52:59 10° NNE visible
23 Sep - 23:37:12 10° NW 23:41:17 88° SW 23:45:42 10° SE daylight
24 Sep - 10:30:20 10° SSW 10:37:21 48° SE 10:44:11 10° ENE visible
24 Sep - 12:18:11 10° WSW 12:24:49 37° NW 12:31:01 10° NNE visible
24 Sep - 23:15:25 10° NW 23:19:29 84° SW 23:23:48 10° SE daylight
25 Sep - 10:08:16 10° SSW 10:15:17 49° SE 10:22:14 10° ENE visible
25 Sep - 11:56:08 10° WSW 12:02:46 37° NW 12:09:02 10° NNE visible
25 Sep - 22:53:38 10° NW 22:57:42 80° SW 23:01:55 10° SE daylight
26 Sep - 09:46:14 10° SSW 09:53:13 50° SE 10:00:14 10° ENE visible
26 Sep - 11:34:06 10° WSW 11:40:43 36° NW 11:47:04 10° NNE visible
26 Sep - 22:31:50 10° NW 22:35:54 75° SW 22:40:03 10° SE daylight
27 Sep - 07:42:59 10° SE 07:43:21 10° SE 07:43:43 10° SE daylight
27 Sep - 09:24:13 10° SSW 09:31:10 52° SE 09:38:14 10° ENE daylight
27 Sep - 11:12:07 10° WSW 11:18:40 35° NW 11:25:04 10° NNE visible
27 Sep - 22:10:02 10° NW 22:14:07 71° SW 22:18:13 10° SE daylight
28 Sep - 07:20:47 10° SSE 07:21:23 10° SE 07:21:58 10° SE daylight
28 Sep - 09:02:14 10° SW 09:09:06 53° SE 09:16:14 10° ENE daylight
28 Sep - 10:50:07 10° WSW 10:56:38 34° NW 11:03:03 10° NNE visible
28 Sep - 20:04:24 10° NNE 20:05:27 11° NE 20:06:29 10° NE visible
28 Sep - 21:48:12 10° NW 21:52:20 68° SW 21:56:24 10° SE daylight
